This demonstration page uses our WeatherBlox Daily Observations layout. Learn more.

Left ArrowRight Arrow

Hourly Observations for June 19, 2019

Temp ( °F °C ) Dew Point ( °F °C ) Humidity (%) Winds ( mph kmh ) Pressure ( in mb ) Visibility ( mi km ) Precip ( " mm )
6:30 am 06:30 Cloudy with Mist and Fog 66 19 66 19 100 100 Calm 29.80 1009 3 5 N/A
6:45 am 06:45 Cloudy with Mist and Fog 68 20 66 19 94 94 Calm 29.79 1009 3 5 N/A
7:17 am 07:17 Cloudy with Mist and Fog 68 20 68 20 100 100 Calm 29.78 1009 1 2 N/A
7:45 am 07:45 Cloudy with Mist and Fog 68 20 68 20 100 100 Calm 29.78 1009 1 2 N/A
8:45 am 08:45 Cloudy with Mist and Fog 68 20 68 20 100 100 Calm 29.78 1009 2 2 N/A
9:01 am 09:01 Cloudy with Mist and Fog 70 21 68 20 94 94 Calm 29.78 1009 4 6 N/A
9:45 am 09:45 Cloudy 72 22 68 20 88 88 Calm 29.77 1008 7 11 N/A
10:11 am 10:11 Mostly Cloudy 72 22 68 20 88 88 Calm 29.78 1008 7 11 N/A
10:45 am 10:45 Partly Cloudy 73 23 70 21 89 89 Calm 29.77 1008 7 11 N/A
11:45 am 11:45 Mostly Cloudy 77 25 70 21 79 79 Calm 29.75 1008 10 16 N/A
12:45 pm 12:45 Mostly Cloudy 77 25 68 20 74 74 S 9 15 29.74 1007 10 16 N/A
1:45 pm 13:45 Partly Cloudy 77 25 72 22 83 83 SW 6 9 29.71 1006 10 16 N/A
2:49 pm 14:49 Mostly Cloudy 79 26 68 20 70 70 SW 3 6 29.68 1005 10 16 N/A
3:48 pm 15:48 Mostly Cloudy 75 24 72 22 89 89 W 3 6 29.67 1005 10 16 N/A
4:19 pm 16:19 Cloudy with Light Rain 75 24 70 21 83 83 S 17 28 29.68 1005 3 5 N/A
4:35 pm 16:35 Cloudy with Light Rain 66 19 64 18 94 94 S 12 19 29.71 1006 1 2 N/A
4:48 pm 16:48 Cloudy with Light Rain 66 19 64 18 94 94 SW 8 13 29.72 1006 1 2 N/A
5:01 pm 17:01 Mostly Cloudy with Light Rain 66 19 64 18 94 94 SSW 8 13 29.71 1006 3 5 N/A
5:08 pm 17:08 Cloudy with Light Rain 68 20 66 19 94 94 SW 5 7 29.70 1006 5 8 N/A
5:29 pm 17:29 Mostly Cloudy 68 20 66 19 94 94 Calm 29.68 1005 10 16 N/A
5:50 pm 17:50 Mostly Cloudy 70 21 66 19 88 88 Calm 29.67 1005 10 16 N/A
6:48 pm 18:48 Mostly Cloudy 70 21 68 20 94 94 SW 5 7 29.66 1004 10 16 N/A
7:28 pm 19:28 Cloudy with Light Rain 70 21 68 20 94 94 W 6 9 29.67 1005 3 4 N/A
7:45 pm 19:45 Cloudy with Light Rain 70 21 68 20 94 94 SSW 3 6 29.65 1004 5 8 N/A
8:46 pm 20:46 Mostly Cloudy 70 21 68 20 94 94 S 3 6 29.64 1004 10 16 N/A
9:45 pm 21:45 Cloudy with Light Rain 68 20 66 19 94 94 SSE 6 9 29.62 1003 10 16 N/A

Powered by AerisWeather